Current Version              Previous Version:    01  02  03  04  05  06  07  08  09  10  11  12  13  14  15  16  17  18  19  20  21  22  23  24  25  26  27  28  29  30  
   31  32  33  34  35  36  37  38  39  40  41  42  43  44  45  46  47  48  49  50  51  52  53  54  55  56  57  58  59  60  

[Printable]
650
ASUS44 KLUB 280310
RWRTX
WEST TEXAS WEATHER ROUNDUP
NATIONAL WEATHER SERVICE LUBBOCK TX
900 PM CST TUE JAN 27 2015

NOTE: "FAIR" INDICATES FEW OR NO CLOUDS BELOW 12,000 FEET WITH NO
SIGNIFICANT WEATHER AND/OR OBSTRUCTIONS TO VISIBILITY.

TXZ004-006>008-010-012-014-016-OKZ002-280400-
TEXAS PANHANDLE/OKLAHOMA PANHANDLE

CITY           SKY/WX    TMP DP  RH WIND       PRES   REMARKS
AMARILLO       CLEAR     47  34  60 S9        30.11F
BORGER         CLEAR     60  33  36 S12       30.07F
CANADIAN       CLEAR     48  36  62 SW5       30.05F
DALHART        CLEAR     47  36  65 SW13      30.09F
DUMAS          CLEAR     46  35  65 SW10      30.08F
GUYMON         CLEAR     46  36  68 S7        30.03F
HEREFORD       CLEAR     48  38  69 SW6       30.13S
PAMPA          CLEAR     51  35  54 SW13      30.09F
PERRYTON         N/A     49  35  56 S12       30.04F
$$

TXZ026-029-035-045-048-280400-
SOUTHERN PANHANDLE/SOUTH PLAINS/ROLLING PLAINS

CITY           SKY/WX    TMP DP  RH WIND       PRES   REMARKS
CHILDRESS      CLEAR     55  33  43 S9        30.09S
SEMINOLE       CLEAR     53  35  50 SW7       30.18S
LUBBOCK        CLEAR     53  33  46 S9        30.14S
PLAINVIEW      CLEAR     55  36  49 SW9       30.12S
SNYDER         CLEAR    N/A N/A N/A S7        30.15S
$$

TXZ052-054-060>062-072-078-127-140-154-169-280400-
PERMIAN BASIN/CONCHO VALLEY/BIG COUNTRY/EDWARDS PLATEAU

CITY           SKY/WX    TMP DP  RH WIND       PRES   REMARKS
ABILENE        CLEAR     57  38  48 SE8       30.13S
BIG SPRING     CLEAR     54  32  43 SE8       30.18R
BRADY          CLEAR     64  32  29 S6        30.14S
BROWNWOOD      CLEAR     50  39  66 CALM      30.14S
JUNCTION       CLEAR     51  36  56 W3        30.15S
MIDLAND        CLEAR     56  38  50 SW5       30.16S
ODESSA         CLEAR     57  34  41 CALM      30.17F
SAN ANGELO     CLEAR     55  38  52 S8        30.14R
SONORA         CLEAR     50  37  62 N3        30.20S
SWEETWATER     CLEAR     57  37  48 S9        30.18S
WINK           CLEAR     57  33  40 SE6       30.15S
$$

TXZ055-058-074-075-080-082-280400-
FAR WEST/SOUTHWEST MOUNTAINS/TRANS PECOS

CITY           SKY/WX    TMP DP  RH WIND       PRES   REMARKS
ALPINE         CLEAR     51  44  76 SW6       30.30S
DRYDEN           N/A     64  39  39 S5        30.15R
EL PASO        PTCLDY    60  39  45 CALM      30.21R
FORT STOCKTON  CLEAR     56  41  57 SE5       30.18S
GUADALUPE PASS CLEAR     55  39  54 SW10      30.28R
MARFA          CLEAR     45  39  81 NE7       30.27F
PECOS          CLEAR     53  42  65 CALM      30.16S
PRESIDIO       FAIR      58  46  63 N6        30.19R
$$

TXZ014-016-019-021>030-083-280400
TEXAS TECH WEST TEXAS MESONET/TEXAS PANHANDLE/NORTHERN SOUTH PLAINS

CITY           SKY/WX    TMP DP  RH WIND       PRES   REMARKS
ABERNATHY 5ENE   N/A     46  34  62 S9        30.15R
AMARILLO 9NNE    N/A     42  34  74 S3        30.10S
AMARILLO 7SSE    N/A     45  33  62 S7        30.12S
AMHERST 1NE      N/A     51  32  47 S7        30.15S
BOOTLEG 11WNW    N/A     47  35  64 SW12      30.16S
CANADIAN 6E      N/A     54  34  47 S2        30.05S
CAPROCK CYN SP   N/A     60  32  35 SW10      30.11S
CHILDRESS 2NNE   N/A     58  33  39 S10       30.08S
CLARENDON 2WSW   N/A     47  35  60 S7        30.10S
CLAUDE 12SW      N/A     57  32  37 S2        30.11S
DIMMITT 2NE      N/A     52  33  49 SW8       30.13S
FLOYDADA 2NNE    N/A     52  30  43 S10       30.13S
FRIONA 2NE       N/A     52  33  49 SW13      30.14F
GOODLETT 3W      N/A     56  35  44 S6        30.07S
HART 3N          N/A     47  33  59 SW7       30.14S
HEREFORD 2NW     N/A     50  34  54 SW9       30.13S
MCLEAN 1E        N/A     56  32  40 SW7       30.08S
MEMPHIS 1NE      N/A     49  35  58 W1        30.08S
MULESHOE 2SSW    N/A     46  32  58 S7        30.15S
OLTON 6S         N/A     46  34  64 SW9       30.14S
PALO DURO SP     N/A     55  32  41 S3        30.13S
PAMPA 2E         N/A     51  36  56 S9        30.09S
PLAINVIEW 1S     N/A     53  35  49 S12       30.13R
SILVERTON 7ESE   N/A     47  34  60 S9        30.12F
TULIA 2ENE       N/A     47  35  62 S9        30.13S
TURKEY 2WSW      N/A     52  36  54 SW12      30.09S
UMBARGER 3NNE    N/A     42  35  74 S9        30.12F
$$

TXZ033>036-039>041-045>048-280400
TEXAS TECH WEST TEXAS MESONET/SOUTH PLAINS

CITY           SKY/WX    TMP DP  RH WIND       PRES   REMARKS
AIKEN 3WSW       N/A     42  33  70 SW8       30.14S
ANDREWS 2NE      N/A     55  33  43 SW7       30.17S
ANTON 6SSW       N/A     47  35  62 S10       30.15S
BROWNFIELD 2S    N/A     53  33  46 SW10      30.16R
DENVR CTY 7WNW   N/A     48  33  57 SW8       30.17S
GAIL 2ESE        N/A     55  32  40 SW7       30.14S
LAMESA 2SE       N/A     47  36  64 S8        30.16S
LEVELLAND 4S     N/A     50  31  49 S8        30.15S
LUBBOCK 3WNW     N/A     54  32  42 S6        30.15S
MORTON 1ENE      N/A     55  30  38 SW9       30.15F
ODONNELL 1N      N/A     51  30  44 S6        30.16S
PLAINS 3N        N/A     50  33  51 SW9       30.17S
RALLS 1SE        N/A     47  33  57 S7        30.15R
REESE CENTER     N/A     49  33  56 S10       30.15R
SEAGRAVES 1SW    N/A     47  35  63 SW8       30.16S
SEMINOLE 2NNE    N/A     57  32  39 SW9       30.16S
SLATON 2NE       N/A     54  31  42 SW13      30.14S
SNYDER 3E        N/A     56  32  40 S6        30.14S
SUNDOWN 8SW      N/A     47  31  53 SW10      30.16S
TAHOKA 3NNE      N/A     50  30  46 SW8       30.15S
WOLFFORTH 6SSW   N/A     47  33  57 S8        30.15S
$$

TXZ031-032-036>038-042>044-280400-
TEXAS TECH WEST TEXAS MESONET/ROLLING PLAINS

CITY           SKY/WX    TMP DP  RH WIND       PRES   REMARKS
ASPERMONT 3NE    N/A     56  37  48 S8        30.11S
FLUVANNA 3WNW    N/A     56  28  34 S3        30.14S
GRAHAM 5SSW      N/A     62  28  27 SW8       30.14S
GUTHRIE 10WSW    N/A     57  35  44 S7        30.10S
HASKELL 1NW      N/A     60  38  44 S5        30.11S
JAYTON 1SSE      N/A     56  35  44 S6        30.12S
KNOX CITY 3NW    N/A     51  39  63 S8        30.10S
LK A HENRY 1NW   N/A     55  35  46 SW2       30.13R
NORTHFIELD 1S    N/A     57  35  43 S6        30.09S
ODELL 4ENE       N/A     56  40  55 S10       30.09S
PADUCAH 10SW     N/A     56  35  45 SW10      30.10S
POST 1NE         N/A     56  33  42 SW7       30.13S
RRING SPRGS 3N   N/A     53  36  52 SW7       30.12S
SEYMOUR 3NW      N/A     51  41  67 SE3       30.10S
SPUR 1W          N/A     50  35  56 SW3       30.11S
WEINERT 2NNE     N/A     56  40  56 S9        30.11R
WHITE RVR 6NE    N/A     59  34  38 SW6       30.13S
$$

TXZ052-054-060>062-072-078-127-140-154-169-280400-
TEXAS TECH WEST TEXAS MESONET/PERMIAN BASIN/
CONCHO VALLEY/BIG COUNTRY/EDWARDS PLATEAU

CITY           SKY/WX    TMP DP  RH WIND       PRES   REMARKS
COYANOSA 2N      N/A     54  42  65 SE7       30.17S
JUNCTION 1SSW    N/A     49  38  66 S3        30.17R
MERTZON 3NNE     N/A     51  38  59 SW5       30.17S
SAN ANGELO 7NW   N/A     52  35  51 W1        30.15R
STRLNG CT 4WSW   N/A     47  37  66 W3        30.17R
ST LAWRNCE 5SW   N/A     55  35  48 SW7       30.17S
SWEETWATR 11SW   N/A     51  37  59 SE6       30.16S
WALL 1E          N/A     50  40  68 SE8       30.15S
$$

TXZ055-058-074-075-080-082-280400-
TEXAS TECH WEST TEXAS MESONET/FAR WEST/SOUTHWEST MOUNTAINS/TRANS PECOS

CITY           SKY/WX    TMP DP  RH WIND       PRES   REMARKS
PRSMN GAP BBNP   N/A     64  42  45 CALM      30.18S
GUADLPE MTN NP   N/A     54  39  56 SW3       30.27S
$$